Regional Weather Roundup
Issued by NWS Upton, NY

Current Version | Previous Version | Graphics & Text | Print | Product List | Glossary Off
Versions: 1 2 3 4 5 6 7 8 9 10 11 12 13 14 15 16 17 18 19 20 21 22 23 24 25 26 27 28 29 30 31 32 33 34 35 36 37 38 39 40 41 42 43 44 45 46 47 48 49 50
000 ASUS41 KOKX 312304 RWROKX REGIONAL WEATHER ROUNDUP NATIONAL WEATHER SERVICE NEW YORK NY 700 PM EDT MON AUG 31 2015 NOTE: "FAIR" INDICATES FEW OR NO CLOUDS BELOW 12,000 FEET WITH NO SIGNIFICANT WEATHER AND/OR OBSTRUCTIONS TO VISIBILITY. NYZ071-072-176-178-NJZ106-104-010000- NEW YORK CITY METRO AREA CITY SKY/WX TMP DP RH WIND PRES REMARKS CENTRAL PARK CLEAR 87 64 46 W8 29.98S LAGUARDIA APRT MOCLDY 89 63 41 W15 29.94S HX 90 KENNEDY INTL MOCLDY 83 70 64 S8 29.95F NEWARK/LIBERTY MOCLDY 90 63 40 W12 29.95S HX 91 BRNX BOT. GARD N/A 88 64 45 W9 29.95F TETERBORO PTCLDY 88 62 41 W9 29.93S $$ NYZ177-179-078>081-010000- LONG ISLAND NEW YORK CITY SKY/WX TMP DP RH WIND PRES REMARKS FARMINGDALE PTCLDY 84 69 60 SW10 29.95F ISLIP MOCLDY 81 70 69 SW9 29.94S SHIRLEY CLEAR 81 70 69 SW7 29.96S WESTHAMPTON CLEAR 80 70 71 SW13 29.96F MONTAUK POINT N/A 79 69 71 SW8 29.95S $$ NYZ052-065-067-010000- HUDSON VALLEY CITY SKY/WX TMP DP RH WIND PRES REMARKS WHITE PLAINS PTCLDY 84 65 52 CALM 29.96R NEWBURGH NOT AVBL MONTGOMERY MOCLDY 83 69 62 W5 29.95S POUGHKEEPSIE CLEAR 86 66 51 W6 29.93S ALBANY PTCLDY 81 62 52 NW9 29.95R $$ NJZ001-105-106-008-010-013-015-019>022-104-010000- NEW JERSEY CITY SKY/WX TMP DP RH WIND PRES REMARKS NEWARK/LIBERTY MOCLDY 90 63 40 W12 29.95S HX 91 TETERBORO PTCLDY 88 62 41 W9 29.93S CALDWELL CLEAR 87 65 47 VRB3 29.96R MORRISTOWN MOCLDY 88 66 48 W12 29.96S HX 90 SOMERVILLE CLEAR 87 64 46 CALM 29.95S SUSSEX PTCLDY 83 67 58 CALM 29.98S ANDOVER N/A 80 70 71 CALM 29.99S TRENTON CLEAR 85 67 54 SW7 29.97F MILLVILLE PTCLDY 81 64 56 W5 30.02S ATLANTIC CITY MOCLDY 83 64 52 SW12 30.01S WRIGHTSTOWN PTCLDY 83 69 63 SW8 29.96S TOMS RIVER MOCLDY 84 68 58 SW7 29.99S BELMAR PTCLDY 84 66 54 SW9 29.98S $$ PAZ047>061-062-071-010000- EASTERN PENNSYLVANIA CITY SKY/WX TMP DP RH WIND PRES REMARKS PHILADELPHIA PTCLDY 86 69 56 SW12 30.00S HX 90 ALLENTOWN PTCLDY 86 67 52 SW12 29.99S SCRANTON PTCLDY 83 66 56 SW9 30.00S $$ CTZ002-004>006-009-010-012-RIZ004-006-007-MAZ004-011-015-010000- SOUTHERN NEW ENGLAND IN CT CITY SKY/WX TMP DP RH WIND PRES REMARKS BRADLEY INTL PTCLDY 83 66 56 W6 29.91S HARTFORD CLEAR 87 66 49 W3 29.91S DANBURY CLEAR 82 66 58 W5 29.97R WTRBRY/OXFORD PTCLDY 82 66 57 W3 29.98S BRIDGEPORT CLEAR 84 70 62 W5 29.93S MERIDEN CLEAR 85 68 56 SW3 29.92F NEW HAVEN CLEAR 83 68 60 VRB3 29.93S CHESTER NOT AVBL GROTON PTCLDY 83 69 62 W9 29.92S WILLIMANTIC CLEAR 84 66 54 W3 29.92S IN RI CITY SKY/WX TMP DP RH WIND PRES REMARKS PROVIDENCE MOCLDY 84 66 54 W8 29.91S BLOCK ISLAND PTCLDY 75 70 83 SW15G21 29.94S WESTERLY PTCLDY 81 68 64 SW6 29.93S IN MA CITY SKY/WX TMP DP RH WIND PRES REMARKS BOSTON PTCLDY 87 60 40 W15G22 29.88R WORCESTER CLEAR 78 63 59 W9 29.96R WESTFIELD CLEAR 84 64 50 VRB3 29.93R PROVINCETOWN N/A 75 64 69 W9 29.88S NANTUCKET MOCLDY 74 70 87 W13G21 29.92S $$ ANZ330-335-338-340-345-350-353-355-010000- COASTAL MARINE OBSERVATIONS STATION/POSITION TIME SKY/WX TEMP WIND PRES VSBY WAVE AIR SEA DIR/SP/G HT/PER (UTC) (F) (DEG/KT/KT) (MB) (MI) (FT/S) NY HARB ENTRANCE 2150 79 77 200/ 12/ 14 1014.2 2/10 4S FIRE IS NOT AVBL 20S FIRE ISLAND 2150 77 75 220/ 14/ 16 1014.7 3/ 9 GREAT SOUTH BAY 2215 79 78 260/ 14/ 16 N/A 23SW MTP 2250 75 72 240/ 16/ 17 1013.4 4/10 HUDSON CANYON NOT AVBL KINGS POINT 2200 87 76 280/ 7/ 10 1013.2 EXECUTION ROCKS 2200 84 240/ 8/ 14 N/A CENTRAL LI SOUND NOT AVBL EASTERN LI SOUND 2200 75 71 270/ 8/ 10 N/A ROBBINS REEF 2200 89 280/ 14/ 17 1013.0 $$ >>>>>>>>>>>>>>>>>>>>>>>>>>>> KEY <<<<<<<<<<<<<<<<<<<<<<<<<<< > < > SKY/WX - SKY CONDITION/PRESENT WEATHER < > TMP - TEMPERATURE IN FAHRENHEIT < > DP - DEWPOINT IN FAHRENHEIT < > RH - RELATIVE HUMIDITY IN PERCENT < > WIND - DIRECTION AND SPEED IN MPH < > PRES - MEAN SEA LEVEL PRESSURE IN INCHES OF HG < > WCI - WIND CHILL INDEX < > VSB - VISIBILITY IN MILES < > HX - HEAT INDEX < > TC - TEMPERATURE IN CELSIUS < > VRB - VARIABLE WIND DIRECTION < > < >>>>>>>>>>>>>>>>>>>>>>>>>>>> KEY <<<<<<<<<<<<<<<<<<<<<<<<<<<

USA.gov is the U.S. government's official web portal to all federal, state and local government web resources and services.